Content
SEND FEEDBACK

Daily
Averages
Monthly
Summary
United States of America

ROCK HILL, NEW YORK


Home > North America > United States > New York
Elevation: 1260 feet     Latitude: 41 35N     Longitude: 074 37W

WEATHER
 
SELECT A DAY
Number of Records: 454,581;   Date Range: 1/1/95 - 12/17/14
 
SHARE

PRINT THIS DATA

[ ← Previous Day ]
WEATHER ALMANAC - DECEMBER 17, 2013
[ Next Day → ]
[ °C ]   °F
Weather ElementAverageHighLow
Temperature12.7 °F19.4 °F (3:35 pm)-0.4 °F (2:15 am)
Dewpoint7.7 °F15.8 °F (3:15 pm)-9.4 °F (2:15 am)
Humidity80.3 %93 % (3:15 pm)66 % (2:15 am)
Barometer29.99 in30.12 in (12:55 am)29.89 in (11:55 pm)
Wind Speed3 mph9.2 mph (8:55 am)
Weather ElementAverage
Visibility6.4 mi
Wind DirectionNE (45.6 °)

Weather ElementTotal
Precipitation---
Heating Degree Days55.5 (Base 65)
Averaged from 70 records on December 17, 2013
WEATHER CONDITIONS BREAKOUT
WIND DIRECTION BREAKOUT
WEATHER BY HOUR - DECEMBER 17, 2013
[ °C ]   °F
Local TimeTemperatureDewpointHumidityBarometerVisibilityWind DirectionWind SpeedGust SpeedPrecipitationEventsConditions
12:55 AM1.4 °F-4.0 °F78 %30.12 in10.0 miCalmClear
1:15 AM1.4 °F-4.0 °F78 %30.12 in10.0 miCalmClear
1:35 AM1.4 °F-5.8 °F72 %30.12 in10.0 miCalmClear
1:55 AM1.4 °F-2.2 °F85 %30.12 in10.0 miCalmClear
2:15 AM-0.4 °F-9.4 °F66 %30.11 in10.0 miNorth (10°)5.8 mphClear
2:35 AM1.4 °F-4.0 °F78 %30.10 in10.0 miNNE (20°)4.6 mphClear
2:55 AM1.4 °F-5.8 °F72 %30.10 in10.0 miCalmClear
3:15 AM3.2 °F-0.4 °F85 %30.10 in10.0 miCalmMostly Cloudy
3:35 AM3.2 °F-0.4 °F85 %30.10 in10.0 miCalmOvercast
3:55 AM3.2 °F-0.4 °F85 %30.10 in10.0 miCalmOvercast
4:15 AM3.2 °F-4.0 °F72 %30.10 in10.0 miENE (70°)4.6 mphOvercast
4:35 AM5.0 °F1.4 °F85 %30.09 in10.0 miENE (60°)6.9 mphOvercast
4:55 AM6.8 °F1.4 °F79 %30.09 in10.0 miENE (60°)5.8 mphOvercast
5:15 AM6.8 °F1.4 °F79 %30.09 in10.0 miENE (70°)8.1 mphOvercast
5:35 AM6.8 °F1.4 °F79 %30.09 in10.0 miENE (70°)8.1 mphOvercast
5:55 AM8.6 °F1.4 °F73 %30.08 in10.0 miEast (80°)8.1 mphOvercast
6:15 AM0.0 °F0.0 °FNorth
6:35 AM0.0 °F0.0 °FNorth
6:55 AM8.6 °F3.2 °F79 %30.07 in1.0 miEast (90°)5.8 mph
7:15 AM8.6 °F3.2 °F79 %30.06 in1.2 miEast (90°)6.9 mphOvercast
7:35 AM8.6 °F3.2 °F79 %30.07 in1.2 miEast (90°)6.9 mphOvercast
7:55 AM8.6 °F3.2 °F79 %30.08 in0.5 miEast (80°)4.6 mphOvercast
8:15 AM10.4 °F5.0 °F79 %30.07 in4.0 miEast (90°)8.1 mphOvercast
8:35 AM10.4 °F3.2 °F73 %30.06 in0.8 miEast (80°)6.9 mphOvercast
8:55 AM10.4 °F5.0 °F79 %30.06 in1.8 miEast (80°)9.2 mphOvercast
9:15 AM10.4 °F5.0 °F79 %30.06 in3.0 miEast (90°)9.2 mphOvercast
9:35 AM10.4 °F5.0 °F79 %30.05 in1.2 miEast (90°)9.2 mphOvercast
9:55 AM10.4 °F6.8 °F85 %30.05 in3.0 miEast (80°)6.9 mphOvercast
10:15 AM12.2 °F6.8 °F79 %30.04 in1.2 miEast (80°)6.9 mphOvercast
10:35 AM12.2 °F6.8 °F79 %30.03 in1.8 miEast (80°)6.9 mphOvercast
10:55 AM12.2 °F8.6 °F85 %30.01 in1.8 miEast (90°)6.9 mphOvercast
11:15 AM14.0 °F8.6 °F79 %30.00 in2.0 miEast (90°)8.1 mphOvercast
11:35 AM14.0 °F8.6 °F79 %29.99 in2.0 miEast (80°)5.8 mphOvercast
11:55 AM15.8 °F10.4 °F79 %29.97 in0.8 miEast (90°)5.8 mphOvercast
12:15 PM15.8 °F10.4 °F79 %29.96 in0.2 miEast (80°)4.6 mphOvercast
12:35 PM15.8 °F10.4 °F79 %29.95 in0.2 miEast (90°)4.6 mphOvercast
12:55 PM15.8 °F10.4 °F79 %29.94 in0.2 miEast (90°)4.6 mphOvercast
1:15 PM15.8 °F10.4 °F79 %29.93 in0.5 miEast (80°)4.6 mphOvercast
1:35 PM17.6 °F12.2 °F79 %29.93 in0.8 miCalmOvercast
1:55 PM17.6 °F12.2 °F79 %29.93 in1.0 miCalmOvercast
2:15 PM17.6 °F12.2 °F79 %29.93 in0.8 miCalmOvercast
2:35 PM17.6 °F12.2 °F79 %29.93 in0.8 miCalmOvercast
2:55 PM17.6 °F14.0 °F86 %29.93 in0.8 miCalmOvercast
3:15 PM17.6 °F15.8 °F93 %29.93 in0.8 miCalmOvercast
3:35 PM19.4 °F14.0 °F80 %29.93 in1.8 miCalmOvercast
3:55 PM19.4 °F15.8 °F86 %29.93 in2.5 miCalmOvercast
4:15 PM19.4 °F15.8 °F86 %29.93 in10.0 miCalmOvercast
4:35 PM19.4 °F14.0 °F80 %29.93 in10.0 miCalmOvercast
4:55 PM19.4 °F14.0 °F80 %29.93 in10.0 miCalmOvercast
5:15 PM19.4 °F15.8 °F86 %29.93 in10.0 miCalmOvercast
5:35 PM19.4 °F15.8 °F86 %29.93 in10.0 miCalmOvercast
5:55 PM19.4 °F15.8 °F86 %29.93 in10.0 miCalmOvercast
6:15 PM19.4 °F15.8 °F86 %29.93 in10.0 miCalmOvercast
6:35 PM19.4 °F15.8 °F86 %29.94 in10.0 miCalmOvercast
6:55 PM19.4 °F15.8 °F86 %29.93 in10.0 miCalmOvercast
7:15 PM19.4 °F14.0 °F80 %29.93 in10.0 miCalmOvercast
7:35 PM19.4 °F14.0 °F80 %29.93 in10.0 miCalmOvercast
7:55 PM19.4 °F14.0 °F80 %29.92 in10.0 miCalmOvercast
8:15 PM17.6 °F12.2 °F79 %29.93 in10.0 miCalmOvercast
8:35 PM17.6 °F12.2 °F79 %29.92 in10.0 miWNW (290°)4.6 mphOvercast
8:55 PM17.6 °F12.2 °F79 %29.92 in10.0 miNW (310°)4.6 mphOvercast
9:15 PM17.6 °F12.2 °F79 %29.93 in10.0 miNW (320°)4.6 mphOvercast
9:35 PM17.6 °F12.2 °F79 %29.93 in10.0 miCalmOvercast
9:55 PM17.6 °F12.2 °F79 %29.91 in10.0 miCalmOvercast
10:15 PM17.6 °F12.2 °F79 %29.91 in10.0 miCalmOvercast
10:35 PM17.6 °F12.2 °F79 %29.92 in10.0 miCalmOvercast
10:55 PM19.4 °F15.8 °F86 %29.90 in10.0 miCalmOvercast
11:15 PM19.4 °F12.2 °F74 %29.91 in10.0 miCalmOvercast
11:35 PM17.6 °F12.2 °F79 %29.90 in10.0 miESE (120°)4.6 mphOvercast
11:55 PM17.6 °F14.0 °F86 %29.89 in9.0 miCalmOvercast
Hourly data recorded from KMSV, located miles away from Rock Hill, New York







STORIES FROM OUR PARTNERS